Weather Roundup
Issued by NWS

Home | Current Version | Previous Version | Text Only | Print | Product List | Glossary On
Versions: 1 2 3 4 5 6 7 8 9 10 11 12 13 14 15 16 17 18 19 20 21 22 23 24 25 26 27 28 29 30 31 32 33 34 35 36 37 38 39 40 41 42 43 44 45 46 47 48 49 50
000
NZUS93 KARX 291559
HRRWXR

CURRENT HOURLY OBSERVATIONS ACROSS
MUCH OF THE UPPER MISSISSIPPI VALLEY
NATIONAL WEATHER SERVICE LA CROSSE WI
1100 AM CDT SUN MAY 29 2016


...SOUTHEAST MINNESOTA...


CITY           SKY/WX    TMP DP  RH WIND       PRES   REMARKS
ROCHESTER      MOSUNNY   70  62  76 W22G28    29.99R
ROCHESTER/MAYO PTSUNNY   69  59  71 W16G23    29.98R
WINONA         MOSUNNY   70  59  68 W7G16     29.95R
AUSTIN         MOSUNNY   70  59  68 W8G20     30.01R
ALBERT LEA     MOSUNNY   72  61  68 W7G20       N/A
DODGE CENTER   MOSUNNY   70  59  68 W14       29.99R
PRESTON        MOSUNNY   69  58  68 W14G24    30.00R
OWATONNA       SUNNY     70  61  73 W15       29.99R
FARIBAULT      NOT AVBL
$$

...ELSEWHERE IN MINNESOTA...


CITY           SKY/WX    TMP DP  RH WIND       PRES   REMARKS
MINNEAPOLIS    PTSUNNY   71  59  65 NW13      29.94R
INTNL FALLS    CLOUDY    57  55  93 NW8       29.83S
DULUTH         CLOUDY    61  56  83 W14       29.84R
RED WING       CLOUDY    70  59  68 NW16      29.93R
REDWOOD FALLS  SUNNY     71  59  65 W14       29.99R
MANKATO        MOSUNNY   70  57  64 W12       29.99R
WORTHINGTON    MOSUNNY   70  59  68 W15       30.05R
FAIRMONT       SUNNY     72  59  64 W16G22    30.02R
$$

...SOUTHWEST WISCONSIN...


CITY           SKY/WX    TMP DP  RH WIND       PRES   REMARKS
LA CROSSE      CLOUDY    70  59  68 W15       29.95R
PRAIRIE DU CHI MOSUNNY   72  57  58 W15       29.99S
BOSCOBEL       PTSUNNY   75  61  61 W10       29.98R
LONE ROCK      NOT AVBL
PLATTEVILLE    PTSUNNY   71  62  73 W14G23    30.01R
FORT MC COY    CLOUDY    68  60  76 W12G18    29.95R
MAUSTON-NEW LI PTSUNNY   69  60  72 W14       29.93S
VIROQUA        CLOUDY    68  59  73 W13       29.98R
WIS DELLS      MOSUNNY   70  57  64 W13G21    29.95R
$$

...ELSEWHERE IN WISCONSIN...


CITY           SKY/WX    TMP DP  RH WIND       PRES   REMARKS
MILWAUKEE      PTSUNNY   72  59  63 SW17G26   29.97R
MADISON        PTSUNNY   71  59  65 W10G18    29.96R
GREEN BAY      PTSUNNY   68  62  81 SW13      29.87S
EAU CLAIRE     NOT AVBL
BLACK RVR FLS  CLOUDY    68  58  71 W7G17     29.93R
MEDFORD        CLOUDY    62  60  94 W10       29.89S
WAUSAU         CLOUDY    68  59  73 W10G21    29.86S
WIS RAPIDS     CLOUDY    68  57  68 NW16G23   29.92R
MARSHFIELD     CLOUDY    67  58  72 W17G24    29.90R
RICE LAKE      CLOUDY    64  58  80 W9        29.91R
$$

...NORTHEAST IOWA...


CITY           SKY/WX    TMP DP  RH WIND       PRES   REMARKS
WATERLOO       MOSUNNY   74  59  59 W12       30.03R
DUBUQUE        MOSUNNY   71  61  70 W17       30.03R
DECORAH        PTSUNNY   68  61  77 W7        29.99S
MASON CITY     MOSUNNY   71  62  73 W17       30.05R
CHARLES CITY   PTSUNNY   70  63  78 W13       30.03R
OELWEIN        MOSUNNY   72  61  68 W14G21    30.03S
$$

...ELSEWHERE IN IOWA...


CITY           SKY/WX    TMP DP  RH WIND       PRES   REMARKS
DES MOINES     MOSUNNY   74  58  57 W9        30.08S
IOWA CITY      SUNNY     73  61  65 W14       30.07R
FORT DODGE     SUNNY     73  57  56 W10       30.07S
MARSHALLTOWN   MOSUNNY   72  61  68 W9        30.06R
CEDAR RAPIDS   MOSUNNY   72  63  73 W14G22    30.05R
$$

...NORTHERN ILLINOIS...


CITY           SKY/WX    TMP DP  RH WIND       PRES   REMARKS
CHICAGO-OHARE  PTSUNNY   75  59  57 SW20G26   30.00R
CHICAGO-MIDWAY MOSUNNY   79  59  50 SW15G28   30.00R
MOLINE         MOSUNNY   74  61  63 W12G20    30.05R
ROCKFORD       PTSUNNY   72  60  66 W14       30.04S
PEORIA         SUNNY     77  59  53 NW10      30.06S
$$

NOTE: "FAIR" INDICATES FEW OR NO CLOUDS BELOW 12,000 FEET WITH NO
SIGNIFICANT WEATHER AND/OR OBSTRUCTIONS TO VISIBILITY. WIND
SPEEDS ARE IN MILES-PER-HOUR.




USA.gov is the U.S. government's official web portal to all federal, state and local government web resources and services.